星链-31769 (STARLINK-31769 )

导读 | 豆包AI

STARLINK-31769是美国SpaceX星链互联网卫星星座中的一员,于北京时间2024年4月28日8时发射升空,延续星链项目低轨卫星互联网组网部署节奏。该卫星承担星链星座全球宽带覆盖任务,依托低轨布局为全球偏远地区、移动场景提供高速互联网接入服务,服务覆盖海事、航空等特殊领域,支撑SpaceX持续推进近地轨道巨型星座构建。

基本信息
目录编号:
59617
目录名称:
STARLINK-31769
国际标识:
2024-080S
轨道中心:
EARTH
卫星名称:
星链-31769
卫星全名:
星链-31769 (STARLINK-31769 )
卫星状态:
在轨 (已飞行733 天)
发射日期:
2024-04-28 UTC
国别 :
美国 (US)
星等 :
--
轨道信息
数据来源 国际轨道数据
星历时间: 2026-04-30T18:36:49+0800
14小时前
查看轨道信息
半长轴: 6861.144km
偏心率: 0.0001007
轨道倾角: 43.001°
近地点辐角 273.337°
升交点赤经 105.969°
平近点角 86.737°
近地点: 482.316km
远地点: 483.698km
周期: 94.266分钟
每日圈数: 15.275943
详细信息
固有亮度:
5
最大亮度:
1.5
卫星平台:
Starlink v2.0 mini
覆盖范围:
全球
运营商:
太空探索技术公司
运营商所在国:
美国
制造商(研发单位):
太空探索技术公司
制造商所在国:
美国
使用方式:
暂无
卫星简介
星链(Starlink)计划是由太空探索技术公司(SpaceX)提出的一个巨型低轨卫星互联网星座项目,计划在2019年至2024年间在太空搭建由约1.2万颗卫星组成的“星链”网络,其中1584颗将部署在地球上空550千米处的近地轨道,并从2020年开始工作。该卫星仍在工作。
2D轨道图
3D轨道图
轨道高度分析图
轨道倾角分析图
轨道综合分析图
查看轨道综合分析图